Weather History for Rio De Janeiro Aeroporto, Brazil

Change the Weather History Date:

Wednesday, September 4, 2013

  Actual Average Record
Temperature  
Mean Temperature 68 °F -  
Max Temperature 69 °F 76 °F - ()
Min Temperature 66 °F 66 °F - ()
Cooling Degree Days 2    
Growing Degree Days 18 (Base 50)    
Moisture  
Dew Point 66 °F    
Average Humidity 92    
Maximum Humidity 100    
Minimum Humidity 88    
Precipitation  
Precipitation 0.00 in - - ()
Sea Level Pressure  
Sea Level Pressure 30.16 in    
Wind  
Wind Speed 5 mph ()    
Max Wind Speed 17 mph    
Max Gust Speed -    
Visibility 3.6 miles    
Events Rain    
T = Trace of Precipitation, MM = Missing Value Source: Averaged Metar Reports

Daily Weather History Graph

Daily Weather History Graph

Search for Another Location

Airport:

Trip Planner

Search our weather history database for the weather conditions in past years. The results will help you decide how hot, cold, wet, or windy it might be!

Date:

Astronomy

Sep. 04, 2013 Rise Set
Actual Time 6:00 AM BRT 5:43 PM BRT
Civil Twilight 5:37 AM BRT 6:06 PM BRT
Nautical Twilight 5:11 AM BRT 6:32 PM BRT
Astronomical Twilight 4:45 AM BRT 6:58 PM BRT
Moon 5:07 AM BRT (9/4) 5:06 PM BRT (9/4)
Length of Visible Light 12h 28m
Length of Day
11h 43m
Waning Crescent, 1% of the Moon is Illuminated
Sep 4
Waning Crescent
Sep 5
New
Sep 12
First Quarter
Sep 19
Full
Sep 27
Last Quarter

Hourly Weather History & Observations

Time (BRT) Temp. Dew Point Humidity Pressure Visibility Wind Dir Wind Speed Gust Speed Precip Events Conditions
5:15 AM 68.0 °F 66.2 °F 94% 30.06 in 5.0 mi NNW 5.8 mph - N/A Rain Light Rain
6:00 AM 68.0 °F 64.4 °F 88% 30.06 in 5.0 mi North 6.9 mph - N/A Rain Light Rain
6:15 AM 68.0 °F 64.4 °F 88% - 3.1 mi NNW 5.8 mph - N/A Rain Light Rain
7:00 AM 68.0 °F 66.2 °F 94% - 3.1 mi NW 4.6 mph - N/A Rain Light Rain
8:00 AM 68.0 °F 66.2 °F 94% - 3.1 mi NE 5.8 mph - N/A Rain Light Rain
9:00 AM 68.0 °F 66.2 °F 94% - 2.8 mi North 5.8 mph - N/A Rain Light Rain
10:00 AM 68.0 °F 66.2 °F 94% 30.15 in 3.7 mi NNW 6.9 mph - N/A   Overcast
11:00 AM 69.8 °F 66.2 °F 88% - 3.1 mi NNW 4.6 mph - N/A Rain Light Rain
12:00 PM 68.0 °F 66.2 °F 94% 30.15 in 3.1 mi North 5.8 mph - N/A Rain Light Rain
1:00 PM 68.0 °F 66.2 °F 94% 30.12 in 3.1 mi NE 4.6 mph - N/A Rain Light Rain
1:35 PM 68.0 °F 66.2 °F 94% 30.15 in 2.2 mi NNW 6.9 mph - N/A Rain Light Rain
2:00 PM 68.0 °F 66.2 °F 94% 30.12 in 1.9 mi North 4.6 mph - N/A Rain Light Rain
3:00 PM 68.0 °F 66.2 °F 94% 30.12 in 2.5 mi North 4.6 mph - N/A Rain Light Rain
4:00 PM 68.0 °F 66.2 °F 94% 30.15 in 1.9 mi South 17.3 mph - N/A Rain Rain
4:30 PM 66.2 °F 64.4 °F 94% 30.12 in 2.5 mi SSE 13.8 mph - N/A Rain Light Rain
5:00 PM 68.0 °F 64.4 °F 88% 30.15 in 2.5 mi SSE 13.8 mph - N/A   Overcast
6:00 PM 68.0 °F 64.4 °F 88% 30.18 in 5.6 mi SSE 6.9 mph - N/A   Overcast
6:40 PM 68.0 °F 64.4 °F 88% 30.18 in 6.2 mi SE 3.5 mph - N/A   Overcast
7:00 PM 68.0 °F 64.4 °F 88% 30.18 in 6.2 mi South 5.8 mph - N/A   Overcast
8:00 PM 68.0 °F 64.4 °F 88% 30.21 in 6.2 mi South 5.8 mph - N/A   Mostly Cloudy
9:00 PM 68.0 °F 64.4 °F 88% 30.21 in 5.6 mi ENE 2.3 mph - N/A Rain Light Rain
9:15 PM 68.0 °F 66.2 °F 94% 30.21 in 2.8 mi SE 2.3 mph - N/A Rain Light Rain
10:00 PM 66.2 °F 66.2 °F 100% 30.24 in 2.5 mi SE 1.2 mph - N/A Rain Rain
11:00 PM 66.2 °F 66.2 °F 100% 30.24 in 2.5 mi South 3.5 mph - N/A Rain Rain